JST745 YSSY-YMLT

Flight info

Callsign JST745
Flight time N/A
Altitude 36000
Route TESAT H65 WOL H20 OTKED J22 LT
Aircraft A320/M-SDE3FGHIRWY/LB1

Departure

Time 2026-05-07 04:28
Airport Sydney Kingsford Smith International Airport (YSSY)

Arrival

Time N/A
Airport Launceston Airport (YMLT)
Time Latitude Longitude Altitude Speed Heading
2026-05-07 03:49 -33.93524 151.17768 30 ft 0 kts 279°
2026-05-07 03:50 -33.93524 151.17765 30 ft 0 kts 279°
2026-05-07 04:19 -33.93526 151.17776 30 ft 4 kts 280°
2026-05-07 04:19 -33.93530 151.17807 30 ft 4 kts 274°
2026-05-07 04:19 -33.93528 151.17835 30 ft 4 kts 217°
2026-05-07 04:19 -33.93531 151.17837 30 ft 4 kts 190°
2026-05-07 04:20 -33.93558 151.17831 30 ft 4 kts 190°
2026-05-07 04:20 -33.93585 151.17826 30 ft 4 kts 190°
2026-05-07 04:20 -33.93611 151.17821 30 ft 2 kts 190°
2026-05-07 04:21 -33.93613 151.17820 30 ft 0 kts 190°
2026-05-07 04:22 -33.93614 151.17820 30 ft 1 kts 190°
2026-05-07 04:23 -33.93640 151.17814 30 ft 7 kts 192°
2026-05-07 04:23 -33.93693 151.17798 30 ft 9 kts 194°
2026-05-07 04:23 -33.93740 151.17785 30 ft 7 kts 189°
2026-05-07 04:23 -33.93777 151.17823 30 ft 8 kts 121°
2026-05-07 04:24 -33.93805 151.17892 30 ft 10 kts 103°
2026-05-07 04:24 -33.93791 151.17982 30 ft 12 kts 74°
2026-05-07 04:24 -33.93768 151.18080 30 ft 14 kts 74°
2026-05-07 04:24 -33.93741 151.18196 30 ft 15 kts 74°
2026-05-07 04:25 -33.93712 151.18321 30 ft 13 kts 74°
2026-05-07 04:25 -33.93686 151.18432 30 ft 15 kts 74°
2026-05-07 04:25 -33.93658 151.18550 30 ft 16 kts 73°
2026-05-07 04:25 -33.93628 151.18673 30 ft 14 kts 74°
2026-05-07 04:26 -33.93601 151.18791 30 ft 15 kts 74°
2026-05-07 04:26 -33.93600 151.18890 30 ft 11 kts 114°
2026-05-07 04:26 -33.93659 151.18946 28 ft 13 kts 159°
2026-05-07 04:26 -33.93736 151.18955 25 ft 8 kts 195°
2026-05-07 04:27 -33.93772 151.18912 26 ft 5 kts 247°
2026-05-07 04:27 -33.93777 151.18891 25 ft 0 kts 255°
2026-05-07 04:27 -33.93777 151.18890 25 ft 1 kts 255°
2026-05-07 04:27 -33.93802 151.18778 27 ft 44 kts 253°
2026-05-07 04:28 -33.93946 151.18174 30 ft 103 kts 254°
2026-05-07 04:28 -33.94183 151.17175 41 ft 145 kts 251°
2026-05-07 04:28 -33.94450 151.15987 622 ft 145 kts 252°
2026-05-07 04:28 -33.94714 151.14810 1205 ft 147 kts 252°
2026-05-07 04:29 -33.94989 151.13599 1771 ft 150 kts 251°
2026-05-07 04:29 -33.95274 151.12362 2112 ft 163 kts 252°
2026-05-07 04:29 -33.95596 151.10955 2312 ft 186 kts 254°
2026-05-07 04:29 -33.96148 151.09478 2563 ft 207 kts 230°
2026-05-07 04:30 -33.97416 151.08540 3148 ft 223 kts 204°
2026-05-07 04:30 -33.98902 151.07922 3720 ft 235 kts 207°
2026-05-07 04:30 -34.00456 151.07142 4397 ft 244 kts 208°
2026-05-07 04:30 -34.02014 151.06325 5259 ft 246 kts 208°
2026-05-07 04:31 -34.03598 151.05491 6131 ft 249 kts 208°
2026-05-07 04:31 -34.05200 151.04659 6972 ft 252 kts 207°
2026-05-07 04:31 -34.06835 151.03821 7758 ft 257 kts 207°
2026-05-07 04:31 -34.08490 151.02980 8523 ft 262 kts 207°
2026-05-07 04:32 -34.10192 151.02120 9242 ft 267 kts 207°
2026-05-07 04:32 -34.11923 151.01251 9964 ft 272 kts 207°
2026-05-07 04:32 -34.13702 151.00354 10432 ft 288 kts 208°
2026-05-07 04:32 -34.15626 150.99376 10610 ft 311 kts 208°
2026-05-07 04:33 -34.17680 150.98334 10900 ft 327 kts 208°
2026-05-07 04:33 -34.19781 150.97275 11487 ft 333 kts 208°